Lid_Strength_Index
-1 -0 2 5 9 8 9 7 5 6 5 4 4 4 5 4 6 10 1 1 0 0 -1 -1 -1 -1 -1 -1 -1 -1 -1 -1 -1 -1 -1 -1 -1 -1 -1 -1 -1 -1 -1 -1 -1 -1 -1 -1 -1
-1 0 3 6 11 11 9 6 6 5 4 3 4 5 5 5 3 3 2 0 0 -0 -0 -1 -1 -1 -1 -1 -1 -1 -1 -1 -1 -1 -1 -1 -1 -1 -1 -1 -1 -1 -1 -1 -1 -1 -1 -1 -1
-0 1 5 7 9 11 10 6 5 4 3 4 4 4 5 4 3 2 1 0 -0 0 -1 -1 -0 -1 -1 -1 -1 -1 -1 -1 -1 -1 -1 -1 -1 -1 -1 -1 -1 -1 -1 -1 -1 -1 -1 -1 -1
1 3 4 8 9 8 8 7 5 5 4 3 3 5 3 2 3 1 0 -0 0 0 -0 -1 -0 -1 -1 -1 -1 -1 -1 -1 -1 -1 -1 -1 -1 -1 -1 -1 -1 -1 -1 -1 -1 -1 -1 -1 -1
2 4 8 8 8 7 5 5 6 6 5 4 3 5 4 2 1 1 0 0 0 0 -0 -1 -1 -1 -1 -1 -1 -1 -1 -1 -1 -1 -1 -1 -1 -1 -1 -1 -1 -1 -1 -1 -1 -1 -1 -1 -1
5 5 8 9 8 6 5 4 5 5 6 5 4 4 3 1 1 1 0 0 -0 0 -0 -1 -1 -0 -1 -1 -1 -1 -1 -1 -1 -1 -1 -1 -1 -1 -1 -1 -1 -1 -1 -1 -1 -1 -1 -1 -1
5 7 9 8 7 7 5 4 5 5 5 6 4 5 3 2 1 1 0 0 -0 -0 -0 -0 -1 -1 -1 -1 -1 -1 -1 -1 -1 -1 -1 -1 -1 -1 -1 -1 -1 -1 -1 -1 -1 -1 -1 -1 -1
5 6 8 8 8 7 4 4 4 5 5 3 3 6 5 2 1 1 0 0 0 0 -0 -0 -0 -1 -1 -1 -1 -1 -1 -1 -1 -1 -1 -1 -1 -1 -1 -1 -1 -1 -1 -1 -1 -1 -1 -1 -1
4 8 9 8 7 7 4 5 3 4 4 4 3 4 3 2 1 1 1 1 1 1 0 -0 -0 -0 -1 -1 -1 -1 -1 -1 -1 -1 -1 -1 -1 -1 -1 -2 -1 -1 -1 -1 -1 -1 -1 -1 -2
6 8 8 6 5 6 5 4 4 5 5 5 4 3 4 3 2 2 2 3 2 1 1 -0 -0 -0 -1 -0 -1 -1 -1 -1 -2 -2 -1 -1 -2 -2 -1 -2 -1 -1 -1 -1 -1 -1 -1 -1 -1
6 8 6 6 5 5 5 5 4 5 6 5 5 3 3 4 2 2 2 2 2 1 1 0 -0 -1 -0 -0 -1 -1 -1 -1 -1 -2 -2 -2 -1 -2 -1 -1 -1 -2 -1 -1 -1 -1 -1 -1 -1
7 6 5 5 5 6 6 4 5 5 5 4 3 3 2 3 3 2 2 2 2 1 1 0 -0 -0 -1 -0 -0 -1 -0 -1 -1 -1 -2 -2 -1 -1 -1 -1 -1 -2 -1 -1 -1 -1 -2 -1 -1
6 5 5 5 6 6 5 5 6 5 4 3 3 3 3 3 4 2 1 1 2 2 1 0 -0 -0 -1 -0 -1 -0 -1 -1 -1 -1 -2 -1 -1 -1 -1 -1 -1 -1 -1 -1 -1 -1 -1 -1 -1
4 5 5 4 4 5 6 6 5 5 4 4 3 3 3 3 3 2 2 2 2 2 1 0 0 -0 -1 -0 -1 -0 -1 -1 -1 -1 -1 -2 -1 -1 -1 -1 -1 -1 -1 -1 -1 -1 -1 -1 -1
4 6 6 5 5 5 4 7 8 5 4 4 4 4 3 2 2 2 2 2 2 2 1 1 1 0 -0 -1 -1 -0 -1 -1 -1 -1 -2 -2 -2 -1 -1 -1 -1 -1 -2 -1 -1 -1 -1 -0 -1
6 6 9 6 5 5 5 9 7 5 5 5 5 4 3 2 2 1 2 1 1 2 2 1 0 1 -0 -0 -0 -0 -1 -1 -1 -1 -1 -1 -1 -2 -1 -1 -1 -1 -1 -1 -1 -0 -0 0 0
7 10 9 8 5 6 6 8 6 5 5 5 5 4 4 3 2 1 1 1 1 2 1 1 1 1 1 -0 -0 -1 -1 -1 -1 -1 -1 -1 -1 -1 -1 -1 -1 -2 -1 -1 -0 -0 -0 1 -0
10 10 9 9 6 6 7 7 5 5 4 5 5 4 4 4 2 1 1 1 1 1 1 1 1 1 1 0 -0 -0 -0 -0 -1 -1 -1 -1 -1 -1 -1 -1 -1 -1 -0 -0 -0 -0 -0 0 0
8 9 9 8 6 7 8 7 6 5 4 5 4 4 4 4 2 1 1 1 1 1 2 2 1 1 1 1 1 1 1 0 -0 -1 -1 -1 -1 -1 -1 -1 -1 -0 0 0 -0 0 0 1 0
8 10 10 8 6 7 8 8 6 5 5 4 4 4 4 3 2 2 1 1 1 2 2 2 1 1 1 1 0 0 0 0 -0 -0 -1 -1 -1 -2 -1 -1 -0 -0 1 0 -0 0 1 1 0
9 10 10 10 8 7 8 10 8 6 5 5 4 4 3 3 3 2 2 2 2 3 2 2 1 1 1 0 0 0 -0 0 0 0 0 -1 -1 -1 -1 -1 -0 -0 0 1 2 1 1 2 1
11 7 8 10 11 13 8 15 9 7 6 5 5 5 4 3 3 2 2 2 3 3 2 2 1 1 1 0 0 1 2 2 1 1 0 0 -1 -1 -1 -1 -1 -1 -0 0 -0 0 1 1 2
10 7 9 9 11 12 11 13 10 7 8 6 5 5 4 3 3 3 2 2 3 2 2 2 1 1 1 0 0 1 1 2 1 1 0 0 -0 -0 -1 -1 -0 -0 -0 0 2 2 1 2 2
7 9 9 9 12 18 12 13 11 10 8 6 5 5 5 3 3 2 2 2 3 2 2 2 2 1 1 1 1 1 2 2 2 1 1 1 1 0 -0 -0 -0 -1 -1 -0 0 1 1 1 0
8 12 17 19 19 18 10 12 11 7 6 6 5 4 4 3 3 3 2 4 3 3 2 2 2 2 1 1 1 1 1 1 1 1 2 1 1 1 0 -0 -0 -0 -0 0 1 1 1 0 1
11 13 17 21 20 15 10 13 11 6 5 4 4 4 4 4 3 3 2 4 4 3 3 3 2 2 2 1 1 1 1 1 1 1 1 1 1 1 -0 -0 -1 1 0 1 1 1 1 0 0
13 16 11 17 14 16 12 11 7 6 6 5 5 4 4 4 3 3 2 4 4 3 3 2 2 2 2 1 1 1 1 1 1 0 0 1 0 0 -0 -0 0 1 1 1 -0 1 -0 0 0
11 10 17 16 20 20 15 13 12 9 7 6 5 5 4 3 3 3 2 4 4 3 3 2 2 2 2 1 1 1 1 1 0 0 1 0 -0 -1 0 0 1 2 1 1 0 0 0 0 1
13 15 13 12 14 18 16 13 8 9 7 6 5 4 4 4 3 3 5 6 4 3 3 3 2 2 2 2 1 1 1 1 0 1 0 0 -0 0 1 1 2 1 1 0 0 1 1 1 0
9 11 12 16 15 12 13 14 7 6 6 6 5 4 4 3 3 3 5 5 4 4 3 3 3 2 2 1 1 1 1 1 1 1 0 -0 0 1 2 2 2 2 1 1 1 2 1 1 1